TimeCST,TemperatureF,Dew PointF,Humidity,Sea Level PressureIn,VisibilityMPH,Wind Direction,Wind SpeedMPH,Gust SpeedMPH,PrecipitationIn,Events,Conditions,WindDirDegrees,DateUTC
12:53 AM,46.0,39.9,79,29.99,4.0,ESE,4.6,-,N/A,,Haze,120,2012-12-06 06:53:00
1:53 AM,46.9,44.1,90,29.96,10.0,SSE,8.1,-,N/A,,Clear,150,2012-12-06 07:53:00
2:53 AM,46.9,44.1,90,29.95,8.0,SSE,5.8,-,N/A,,Clear,150,2012-12-06 08:53:00
3:53 AM,46.0,44.1,93,29.91,6.0,SSE,10.4,-,N/A,,Clear,150,2012-12-06 09:53:00
4:53 AM,46.0,44.1,93,29.90,5.0,SSE,8.1,-,N/A,,Clear,150,2012-12-06 10:53:00
5:26 AM,46.4,44.6,93,29.88,5.0,SSE,9.2,-,N/A,,Partly Cloudy,150,2012-12-06 11:26:00
5:50 AM,46.4,44.6,93,29.88,4.0,SSE,10.4,-,N/A,,Mostly Cloudy,150,2012-12-06 11:50:00
5:53 AM,46.9,45.0,93,29.88,4.0,SSE,9.2,-,N/A,,Mostly Cloudy,150,2012-12-06 11:53:00
6:28 AM,46.4,46.4,100,29.89,2.0,SSE,11.5,-,N/A,,Overcast,150,2012-12-06 12:28:00
6:36 AM,46.4,46.4,100,29.89,1.2,SSE,11.5,-,N/A,,Overcast,160,2012-12-06 12:36:00
6:53 AM,48.0,46.9,96,29.88,1.5,SSE,12.7,-,N/A,,Overcast,160,2012-12-06 12:53:00
7:01 AM,48.2,46.4,93,29.88,2.5,SSE,13.8,-,N/A,,Overcast,160,2012-12-06 13:01:00
7:08 AM,48.2,46.4,93,29.88,3.0,SSE,12.7,-,N/A,,Overcast,160,2012-12-06 13:08:00
7:42 AM,48.2,46.4,93,29.87,6.0,SSE,12.7,-,N/A,,Scattered Clouds,160,2012-12-06 13:42:00
7:53 AM,48.9,46.9,93,29.87,6.0,SSE,11.5,-,N/A,,Partly Cloudy,160,2012-12-06 13:53:00
8:53 AM,52.0,46.9,83,29.84,8.0,SSE,17.3,24.2,N/A,,Clear,160,2012-12-06 14:53:00
9:53 AM,57.0,45.0,64,29.84,10.0,South,15.0,-,N/A,,Clear,180,2012-12-06 15:53:00
10:53 AM,61.0,41.0,48,29.82,10.0,South,17.3,26.5,N/A,,Clear,190,2012-12-06 16:53:00
11:53 AM,66.0,37.9,36,29.78,10.0,South,16.1,23.0,N/A,,Clear,190,2012-12-06 17:53:00
12:53 PM,70.0,36.0,29,29.75,10.0,South,15.0,21.9,N/A,,Clear,190,2012-12-06 18:53:00
1:53 PM,71.1,35.1,27,29.74,10.0,South,11.5,20.7,N/A,,Clear,190,2012-12-06 19:53:00
2:53 PM,73.0,34.0,24,29.74,10.0,SSW,11.5,17.3,N/A,,Clear,200,2012-12-06 20:53:00
3:53 PM,73.0,34.0,24,29.73,10.0,SSW,6.9,-,N/A,,Clear,200,2012-12-06 21:53:00
4:53 PM,69.1,36.0,30,29.74,10.0,WNW,4.6,-,N/A,,Clear,290,2012-12-06 22:53:00
5:53 PM,62.1,35.1,37,29.77,10.0,NW,4.6,-,N/A,,Clear,320,2012-12-06 23:53:00
6:53 PM,60.1,33.1,36,29.80,10.0,North,9.2,-,N/A,,Clear,350,2012-12-07 00:53:00
7:53 PM,57.0,34.0,42,29.83,10.0,North,10.4,-,N/A,,Clear,360,2012-12-07 01:53:00
8:53 PM,55.0,37.0,51,29.83,10.0,North,13.8,-,N/A,,Clear,360,2012-12-07 02:53:00
9:53 PM,53.1,39.9,61,29.83,10.0,North,13.8,-,N/A,,Clear,360,2012-12-07 03:53:00
10:53 PM,52.0,42.1,69,29.83,10.0,North,13.8,-,N/A,,Clear,350,2012-12-07 04:53:00
11:53 PM,50.0,42.1,74,29.83,10.0,North,11.5,-,N/A,,Clear,360,2012-12-07 05:53:00